This demonstration page uses our WeatherBlox Daily Observations layout. Learn more.

Left ArrowRight Arrow

Hourly Observations for July 16, 2021

Temp ( °F °C ) Dew Point ( °F °C ) Humidity (%) Winds ( mph kmh ) Pressure ( in mb ) Visibility ( mi km ) Precip ( " mm )
12:53 am 00:53 Clear 82 27.8 62 16.7 51 51 SSE 12 19 29.83 1010 10 16 0.00 0.00
1:53 am 01:53 Clear 80 26.7 62 16.7 54 54 SSE 16 26 29.81 1010 10 16 0.00 0.00
2:53 am 02:53 Clear 79 26.1 63 17.2 58 58 SSE 14 22 29.80 1009 10 16 0.00 0.00
3:53 am 03:53 Clear 78 25.6 63 17.2 60 60 SE 12 19 29.79 1009 10 16 0.00 0.00
4:53 am 04:53 Clear 77 25 63 17.2 62 62 SE 12 19 29.79 1009 10 16 0.00 0.00
5:53 am 05:53 Clear 76 24.4 63 17.2 64 64 SE 13 20 29.80 1009 10 16 0.00 0.00
6:53 am 06:53 Clear 74 23.3 63 17.2 69 69 SE 10 17 29.80 1009 10 16 0.00 0.00
7:53 am 07:53 Sunny 74 23.3 64 17.8 71 71 SE 13 20 29.81 1010 10 16 0.00 0.00
8:53 am 08:53 Sunny 77 25 64 17.8 64 64 SE 13 20 29.83 1010 10 16 0.00 0.00
9:53 am 09:53 Sunny 81 27.2 64 17.8 57 57 SSE 14 22 29.85 1011 10 16 0.00 0.00
10:53 am 10:53 Sunny 85 29.4 64 17.8 50 50 SSE 12 19 29.84 1011 10 16 0.00 0.00
11:53 am 11:53 Sunny 89 31.7 63 17.2 42 42 VRB 7 11 29.84 1011 10 16 0.00 0.00
12:53 pm 12:53 Sunny 93 33.9 62 16.7 36 36 VRB 6 9 29.83 1010 10 16 0.00 0.00
1:53 pm 13:53 Sunny 95 35 59 15 30 30 undefined N/A 29.81 1010 10 16 0.00 0.00
2:53 pm 14:53 Sunny 96 35.6 59 15 29 29 undefined N/A 29.78 1009 10 16 0.00 0.00
3:53 pm 15:53 Partly Cloudy 97 36.1 58 14.4 27 27 VRB 3 6 29.76 1008 10 16 0.00 0.00
4:53 pm 16:53 Sunny 99 37.2 58 14.4 26 26 NNE 7 11 29.75 1007 10 16 0.00 0.00
5:53 pm 17:53 Mostly Sunny 99 37.2 56 13.3 24 24 undefined N/A 29.73 1007 10 16 0.00 0.00
6:18 pm 18:18 Sunny with Thunderstorms 99 37.2 55 12.8 23 23 undefined N/A 29.61 1003 10 16 0.00 0.00
6:39 pm 18:39 Sunny with Nearby Thunderstorms 99 37.2 55 12.8 23 23 S 5 7 29.61 1003 10 16 0.00 0.00
6:53 pm 18:53 Partly Cloudy with Nearby Thunderstorms 99 37.2 55 12.8 23 23 SE 16 26 29.72 1007 10 16 0.00 0.00
7:13 pm 19:13 Partly Cloudy with Nearby Thunderstorms 96 35.6 59 15 29 29 ESE 20 31 29.62 1003 10 16 0.00 0.00
7:27 pm 19:27 Sunny 94 34.4 60 15.6 32 32 E 16 26 29.63 1004 10 16 0.00 0.00
7:53 pm 19:53 Sunny 93 33.9 56 13.3 29 29 ESE 10 17 29.74 1007 10 16 0.00 0.00
8:53 pm 20:53 Sunny 91 32.8 58 14.4 33 33 E 10 17 29.75 1008 10 16 0.00 0.00
9:53 pm 21:53 Partly Cloudy 88 31.1 60 15.6 39 39 SE 7 11 29.78 1009 10 16 0.00 0.00
10:53 pm 22:53 Clear 88 31.1 59 15 38 38 S 9 15 29.81 1010 10 16 0.00 0.00
11:53 pm 23:53 Clear 87 30.6 62 16.7 43 43 SSE 20 31 29.81 1010 10 16 0.00 0.00

Powered by AerisWeather